CZ-6A DEB, 61265

Orbit data source: Space-Track

CZ-6A DEB, 61265 is space debris in LEO originally from a launch on Tue, 06 Aug 2024 UTC launched from the Taiyaun Space Center, China (TSC). Debris objects in space refer to the collection of defunct objects orbiting the Earth. Examples of debris include non-operational satellites, rocket bodies, and fragments generated from explosions, collisions, or faulty payload assembly.

Loading next visibility...
Identifier
61265, 2024-140SA
Orbit
LEO
Country
Flag of CNCN / PRC
Related business
Manufacturer
SAST
Mission
Spacecraft
Bus & Motor
Unknown
Mass
Unknown
Launch date (UTC)
2024-08-06 (2 years ago)
Launch vehicle
Unknown
Launch site
Taiyaun Space Center, China (TSC)
Object type
Payload
Rocket body
Debris
Shape & HBR
Unknown shape, 0.1 m
Radar Cross Section
Small (<0.1 m²)

Expand to show TLE details & history
Last TLE update: 15 hours ago

TLE from 15 hours ago
0 CZ-6A DEB
1 61265U 24140SA  26171.24204499  .00004442  00000-0  90922-3 0  9991
2 61265  88.9505 265.8859 0057907 261.7942  97.6700 14.59604701 96279
Epoch: 2026-06-20T05:48Z
TLE epoch observation values (Epoch: 2026-06-20T05:48:32.687Z)
Latitude
0.00001°
Longitude
-89.70978°
Altitude
703.26 km
Speed
7.501 km/s
True Right ascension
17h 43m 32s
True Declination
0° 00' 00"
Sunlit
Object was in full shadow at epoch
Visualization orbit readout
Latitude
Unknown
Longitude
Unknown
Altitude
Unknown
Speed
Unknown
Apparent Right ascension
Unknown
Apparent Declination
Unknown
Sunlit
N/A
Visualization observer readout
Local Sidereal Time
07:16:39
Azimuth
Unknown
Elevation
Unknown
Doppler factor
Unknown
Orbital elements
Apogee altitude
732.283 km
Perigee altitude
650.408 km
Semi-major axis
7,069.482 km
Eccentricity
0.00579
Inclination
88.9505°
RAAN
265.8859°
Arg. of periapsis
261.7942°
True anomaly
98.32698°
Mean anomaly
97.67°
Eccentric anomaly
97.99855°
Mean motion
3.65142 °/min
Orbital period
98.59 mins
BSTAR
0.00090922
Loading maneuver chart data...
Computing Atmospheric mass density...
Loading historical data...
Loading historical data...
Loading historical data...
Loading historical data...
Loading historical data...
Loading historical data...
Loading historical data...

Documentation

Showing up to 5 results
|